Miscellaneous Local Product
Issued by NWS Hastings, NE

Home | Current Version | Previous Version | Text Only | Print | Product List | Glossary Off
Versions: 1 2 3 4 5 6 7 8 9 10 11 12 13 14 15 16 17 18 19 20 21 22 23 24 25 26 27 28 29 30 31 32 33 34 35 36 37 38 39 40 41 42 43 44 45 46 47 48 49 50

000
AXUS43 KGID 012302
MISGRI

GID CWA HOURLY WEATHER ROUNDUP
NATIONAL WEATHER SERVICE HASTINGS NE
600 PM CDT MON SEP 01 2014

NOTE: "FAIR" INDICATES FEW OR NO CLOUDS BELOW 12,000 FEET WITH NO
SIGNIFICANT WEATHER AND/OR OBSTRUCTIONS TO VISIBILITY.

...SOUTH CENTRAL NEBRASKA...

CITY           SKY/WX    TMP DP  RH WIND       PRES   REMARKS
GRAND ISLAND   PTSUNNY   75  59  57 SW6       29.91F
HASTINGS       PTSUNNY   72  60  66 NW6       29.91S
KEARNEY        CLOUDY    68  59  73 CALM      29.92S
ORD            SUNNY     77  55  46 S8        29.87S
YORK           CLOUDY    72 N/A N/A CALM      29.90F
AURORA         CLOUDY    71  64  78 CALM      29.91R
LEXINGTON      PTSUNNY   73  55  53 S3        29.92S
HOLDREGE       MOSUNNY   72  57  58 CALM      29.93S
HEBRON         PTSUNNY   76  55  49 CALM      29.90F

...NEBRASKA PANHANDLE...

CITY           SKY/WX    TMP DP  RH WIND       PRES   REMARKS
CHADRON        PTSUNNY   64  51  62 E9        29.93S
ALLIANCE       MOSUNNY   69  48  47 N22G33    29.92R
SCOTTSBLUFF    MOSUNNY   71  48  43 N17       29.92R
SIDNEY         SUNNY     77  42  28 W8        29.95S

...WESTERN AND NORTH CENTRAL NEBRASKA...

CITY           SKY/WX    TMP DP  RH WIND       PRES   REMARKS
VALENTINE      CLOUDY    64  53  67 S6        29.91F
AINSWORTH      PTSUNNY   71  49  45 NE3       29.88R
ONEILL         SUNNY     78  51  40 CALM      29.87S
BROKEN BOW     MOSUNNY   76  57  51 S12       29.89S
IMPERIAL       SUNNY     78  48  34 S6        29.92F
NORTH PLATTE   SUNNY     75  53  46 S7        29.91S
MCCOOK         SUNNY     77  52  41 E6        29.92F

...EASTERN NEBRASKA...

CITY           SKY/WX    TMP DP  RH WIND       PRES   REMARKS
NORFOLK        MOSUNNY   78  56  46 S6        29.86F
SO SIOUX CITY  MOSUNNY   80  60  50 SW3       29.85R
TEKAMAH        CLOUDY    76  68  76 CALM      29.85F
COLUMBUS       CLOUDY    77  57  50 CALM      29.88F
ALBION         MOSUNNY   77  56  48 SW6       29.87S
OMAHA EPPLEY   CLOUDY    76  59  55 E3        29.88R
OFFUTT AFB     CLOUDY    76  63  64 SE3       29.88R
MILLARD        CLOUDY    76  61  60 CALM      29.88R
LINCOLN        CLOUDY    77  62  59 W9        29.91R
NEBRASKA CITY  MOSUNNY   75  61  61 NW3       29.89R
BEATRICE       PTSUNNY   75  62  65 W5        29.91R
FALLS CITY     MOSUNNY   79  65  62 N3        29.88R

...NORTHERN KANSAS...

CITY           SKY/WX    TMP DP  RH WIND       PRES   REMARKS
GOODLAND       SUNNY     81  45  28 E7        29.94F
HILL CITY      SUNNY     81  55  40 E6        29.92S
NORTON         CLEAR     79  43  27 E3        29.92S
PHILLIPSBURG   SUNNY     81  52  36 S3        29.91S
SMITH CENTER   SUNNY     75  57  53 E3        29.91S
HAYS           SUNNY     82  59  44 E7        29.90S
RUSSELL        SUNNY     80  63  55 E8        29.89S
CONCORDIA      MOSUNNY   79  59  50 N8        29.90R
SALINA         PTSUNNY   78  65  63 NE5       29.88F
TOPEKA         CLOUDY    80  68  66 CALM      29.88S



USA.gov is the U.S. government's official web portal to all federal, state and local government web resources and services.